EW4907 Weather Reports


Display with metric or nautical units.
time (UTC)temp
F
wind
direction
speed
MPH
gust
MPH
rain 1hr
in
rain 24hr
in
rain mn
in
humidity
%
barometer
mb
20260506071519 74 161 7.0 12.0 0.00 0.00 0.00 89 1008.4
20260506061514 74 207 8.0 15.0 0.00 0.00 0.00 89 1008.3
20260506044506 75 165 8.0 14.0 0.00 0.00 0.00 87 1008.6
20260506043002 75 228 8.0 18.0 0.00 0.00 0.00 88 1008.5
20260506041502 75 167 5.0 13.0 0.00 0.00 0.00 87 1008.4
20260506040100 75 175 6.0 12.0 0.00 0.00 0.00 87 1008.3
20260506034615 75 179 6.0 12.0 0.00 0.00 0.00 87 1008.1
20260506033058 75 167 5.0 12.0 0.00 0.00 0.00 86 1007.9
20260506031604 75 167 4.0 9.0 0.00 0.00 0.00 86 1007.7
20260506030057 76 170 5.0 12.0 0.00 0.00 0.00 85 1007.5
20260506024558 76 154 4.0 11.0 0.00 0.00 0.00 84 1007.3
20260506023101 76 154 6.0 13.0 0.00 0.00 0.00 83 1007.0
20260506021555 77 176 5.0 11.0 0.00 0.00 0.00 81 1006.7
20260506020057 77 171 4.0 15.0 0.00 0.00 0.00 81 1006.5
20260506014554 77 160 3.0 9.0 0.00 0.00 0.00 80 1006.4
20260506013107 78 172 3.0 7.0 0.00 0.00 0.00 80 1006.3
20260506011558 79 122 3.0 6.0 0.00 0.00 0.00 78 1006.3
20260506010112 79 184 3.0 7.0 0.00 0.00 0.00 76 1006.3
20260506004551 80 154 1.0 4.0 0.00 0.00 0.00 74 1006.4
20260506003050 81 205 3.0 7.0 0.00 0.00 0.00 73 1006.1
20260506001650 81 183 4.0 7.0 0.00 0.00 0.00 72 1006.2
20260506000053 81 169 5.0 9.0 0.00 0.00 0.00 72 1005.9
20260505234548 82 176 6.0 11.0 0.00 0.00 0.00 71 1005.9
20260505233059 82 194 5.0 12.0 0.00 0.00 0.00 69 1005.9
20260505231547 82 221 3.0 10.0 0.00 0.00 0.00 70 1005.9
20260505230053 82 203 5.0 14.0 0.00 0.00 0.00 69 1005.8
20260505224545 82 252 4.0 11.0 0.00 0.00 0.00 69 1005.8
20260505223046 82 148 7.0 16.0 0.00 0.00 0.00 70 1005.7
20260505221543 82 172 7.0 14.0 0.00 0.00 0.00 67 1005.7
20260505220041 83 164 7.0 16.0 0.00 0.00 0.00 67 1005.8
20260505214541 83 188 7.0 14.0 0.00 0.00 0.00 67 1005.9
20260505213038 83 193 7.0 14.0 0.00 0.00 0.00 67 1006.3
20260505211537 83 183 9.0 15.0 0.00 0.00 0.00 67 1006.4
20260505210034 82 182 5.0 14.0 0.00 0.00 0.00 69 1006.5
20260505204533 82 205 7.0 17.0 0.00 0.00 0.00 67 1006.7
20260505203036 81 225 6.0 14.0 0.00 0.00 0.00 71 1007.2
20260505201528 82 170 7.0 13.0 0.00 0.00 0.00 68 1007.4
20260505200031 82 195 4.0 14.0 0.00 0.00 0.00 70 1007.5
20260505194525 81 154 6.0 13.0 0.00 0.00 0.00 70 1007.6
20260505193023 81 193 8.0 16.0 0.00 0.00 0.00 71 1007.7
20260505191522 81 153 6.0 14.0 0.00 0.00 0.00 72 1007.8
20260505190030 80 183 5.0 15.0 0.00 0.00 0.00 71 1008.0
20260505184519 80 276 6.0 13.0 0.00 0.00 0.00 71 1008.1
20260505183017 79 158 4.0 11.0 0.00 0.00 0.00 74 1008.2
20260505181512 77 219 5.0 11.0 0.00 0.00 0.00 77 1008.5
20260505180011 76 214 6.0 11.0 0.00 0.00 0.00 78 1008.7
20260505174508 75 219 8.0 15.0 0.00 0.00 0.00 79 1008.8
20260505173005 75 214 6.0 10.0 0.00 0.00 0.00 82 1009.1
20260505171502 74 173 4.0 12.0 0.00 0.00 0.00 83 1009.1
20260505170059 73 162 4.0 9.0 0.00 0.00 0.00 85 1009.1
20260505164557 72 188 6.0 13.0 0.00 0.00 0.00 86 1009.0
20260505163055 72 198 5.0 13.0 0.00 0.00 0.00 87 1009.1
20260505161615 71 211 8.0 12.0 0.00 0.00 0.00 87 1009.2
20260505153050 70 193 6.0 11.0 0.00 0.00 0.00 90 1009.2
20260505151547 70 217 5.0 13.0 0.00 0.00 0.00 90 1009.2
20260505124540 68 203 6.0 18.0 0.00 0.00 0.00 91 1007.8
20260505123037 68 173 5.0 18.0 0.00 0.00 0.00 91 1007.6
20260505121539 68 188 6.0 15.0 0.00 0.00 0.00 91 1007.6
20260505120058 68 160 7.0 12.0 0.00 0.00 0.00 91 1007.6
20260505114535 68 198 4.0 16.0 0.00 0.00 0.00 91 1007.3
20260505113042 68 229 7.0 14.0 0.00 0.00 0.00 91 1007.3
20260505111532 68 194 8.0 16.0 0.00 0.00 0.00 91 1007.6
20260505101527 68 208 7.0 16.0 0.00 0.00 0.00 91 1007.7
20260505100027 68 217 9.0 16.0 0.00 0.00 0.00 91 1007.8
20260505094524 68 169 8.0 17.0 0.00 0.00 0.00 90 1007.7
20260505093023 68 158 6.0 17.0 0.00 0.00 0.00 90 1007.8
20260505091527 68 175 6.0 24.0 0.00 0.00 0.00 89 1007.6
20260505090036 68 285 10.0 19.0 0.00 0.00 0.00 89 1007.7
20260505084519 68 188 8.0 19.0 0.00 0.00 0.00 89 1008.0
20260505083017 68 161 8.0 18.0 0.00 0.00 0.00 89 1007.9
20260505081516 68 181 8.0 21.0 0.00 0.00 0.00 89 1008.3
20260505080014 68 197 15.0 25.0 0.00 0.00 0.00 89 1008.3
20260505074510 68 179 9.0 21.0 0.00 0.00 0.00 89 1008.4
20260505073010 68 190 9.0 17.0 0.00 0.00 0.00 88 1008.7